2024-149BY (60538 NORAD) Tracking and Keplerian Element Data

This shows tracking and keplerian element data for the satellite.

Feedback or suggestion? Click here.




ElementValue
Catalog60538
Name2024-149BY
Epoch Orbit798
Epoch Day286.68851646
Epoch Year2024
RAAN1.2462
Inclination97.7443
Eccentricity0.0001194
Argument of Perigee359.4575
Mean Anonmoly0.6643
Mean Motion14.93199421
Decay Rate0.00014612
L11 60538U 24149BY 24286.68851646 .00014612 00000+0 14019-2 0 9998
L22 60538 97.7443 1.2462 0001194 359.4575 0.6643 14.93199421 7982



Live tracking and technical data element details for 2024-149BY (NORAD 60538). 2024-149BY can be tracked NOW for your location showing map with azimuth and elevation plus other details from your city location.







IsCatalogInMostPopularTable: catalog: 60538, numindb: 5
Update: records affected: 1



GetName: 60538 2024-149BY

Hit Count: updated at: Fri, 06 Dec 2024 12:04:19 GMT